Vertical_Velocity
2 -4 1 -6 -3 -8 -1 5 -0 1 3 -8 -0 -4 -3 -1 3 2 2 -6 0 1 4 0 1 0 4 1 -1 -2 -3 -0 -0 0 -0 1 -0 0 -1 -3 -3 -0 -1 -2
0 1 -1 -2 -6 -3 6 2 -10 -8 -3 0 10 -2 1 2 -4 -5 6 4 -5 1 3 1 1 8 5 0 -0 -1 2 2 -2 1 1 -0 1 -1 5 3 -2 -1 -0 -1
2 4 -2 -7 -2 -0 -2 3 -9 -6 -3 3 1 2 -1 2 1 -1 7 -2 7 -2 -0 4 -2 -1 1 -1 4 1 -0 5 -1 0 -0 2 2 -1 -0 0 3 1 -1 -1
1 -1 -2 -4 -3 -2 9 -12 4 -1 3 -7 -4 -1 4 -2 4 2 0 6 4 18 13 6 8 2 0 -1 -2 3 1 -2 -4 -1 2 1 3 4 2 3 1 0 -1 -0
6 -1 -2 0 -6 -4 9 -6 10 24 -5 0 -17 -3 9 -4 0 -2 -3 -3 5 6 -1 4 2 6 0 3 4 0 1 2 4 1 -1 -0 2 2 3 3 4 2 -1 1
-7 -6 -2 -2 17 -3 -5 5 -9 6 11 -9 -3 -7 -1 -6 -6 -6 -0 2 -9 3 8 -1 6 10 7 5 -1 -2 -4 1 3 1 0 2 2 2 2 0 2 1 2 3
-2 -2 3 -5 6 -3 4 8 -4 7 6 3 16 5 -4 3 -7 -7 -1 9 -1 0 12 -5 10 -27 7 11 3 -1 2 -1 -6 -1 12 1 1 1 1 8 2 -1 -1 1
-3 -2 6 2 -1 3 -5 2 3 -2 3 3 5 -9 -1 -2 -4 -3 16 6 1 -3 -6 9 10 -12 4 2 4 1 -8 2 -0 -2 -1 -24 -5 3 2 8 8 -3 -0 20
-3 1 -2 -5 -7 5 -0 -1 4 4 -4 3 5 -4 -6 4 -3 -8 17 1 -9 -24 -14 -7 -5 -11 -1 3 5 6 0 -4 5 -4 -13 -24 -4 10 2 5 -14 -13 -6 1
3 -0 4 -2 1 -1 -6 4 -1 2 3 1 -3 -1 -10 -4 -1 -4 7 5 -7 4 -16 -4 -10 1 -2 2 1 4 -3 -1 -0 -0 -5 -3 4 29 6 0 0 -1 8 0
1 0 7 -2 -5 3 2 -6 -2 2 -5 0 6 1 -0 1 9 2 -6 1 2 -3 8 -3 -9 -14 9 3 5 4 -10 -3 -2 -9 -8 -1 5 2 -0 5 -0 0 1 5
4 -0 2 1 3 1 -7 -4 11 3 -8 -1 1 -1 -2 1 2 3 1 6 -1 6 -1 -2 -6 -1 -1 2 -13 -5 -8 -4 -0 0 1 -0 -0 -1 2 1 3 2 -0 -1
6 1 -1 -2 0 6 4 3 3 13 8 -4 -1 -8 1 3 -0 2 -1 -10 -4 4 3 -0 3 -5 -13 -10 0 0 -0 3 -1 0 -1 1 1 2 -0 0 -1 -2 -1 -2
-2 -2 -0 -4 4 -0 1 5 1 6 1 10 4 -0 -13 -2 -5 -10 -6 1 -11 12 2 -4 -2 3 5 2 -2 -1 0 5 5 1 2 0 1 1 -0 -1 -2 -2 -0 1
-2 -1 -5 -0 0 -1 -4 -1 -5 -0 5 1 6 5 4 -4 -13 -9 -1 -13 -0 6 -1 1 3 1 4 -1 1 3 3 4 1 -1 0 0 1 2 0 -0 0 -0 -1 -0
-1 -1 -3 -2 1 0 -7 -6 -2 5 0 1 3 4 7 -0 -14 -6 -11 11 9 7 7 3 -3 4 0 4 3 1 0 0 1 1 -3 -3 -2 -1 -2 -1 1 -1 -0 1
-3 -4 -3 -1 3 -1 -8 0 2 6 13 3 -0 5 -0 3 -0 -5 -13 -2 3 0 4 -1 -3 1 2 2 2 0 -2 -2 2 1 1 -1 -1 -1 -1 -1 -0 0 -0 0
4 -0 -0 3 2 -11 19 0 5 9 1 -2 8 3 6 2 2 -1 3 -16 -16 -13 -3 4 5 0 2 2 2 1 0 3 3 1 0 1 0 -3 -3 -2 -2 -1 -0 -2
3 -3 -6 -3 1 4 6 5 3 -4 -5 -0 -5 -5 1 9 10 6 3 2 -9 -2 0 -2 -1 -3 -2 4 0 4 10 2 -2 -1 -2 -1 -0 0 -1 -0 -1 -0 -1 -2
-3 -1 -2 1 -2 -0 2 -10 -6 2 1 4 -5 3 -12 1 -13 1 2 -3 3 -3 1 5 4 4 -1 4 6 2 -9 -2 -2 -3 -2 -2 -2 -3 -2 -1 -1 0 1 1
4 2 -2 -2 0 -7 3 14 4 2 -0 1 16 12 -5 -6 -7 8 9 6 -2 1 -0 -9 0 -4 -3 13 5 -2 -0 -1 -1 -2 -5 -2 -0 -3 -1 -0 -3 -3 -3 -4
1 5 1 2 1 -5 3 -2 -0 -4 -1 6 8 4 -8 -1 2 -30 -3 0 -2 -2 4 -2 -2 -7 2 8 7 6 -2 -4 -1 -0 -0 -3 0 1 0 -1 -1 -1 -3 -4
8 -1 2 1 -4 3 1 -6 -16 -2 1 11 11 7 -19 -1 10 13 -13 -16 4 3 2 -5 -5 7 8 -5 -2 -1 0 1 1 0 0 -3 -2 -2 -1 -1 -2 -3 1 -0
-14 1 -2 4 11 1 -2 4 -9 -0 -1 -0 -8 4 -1 -5 8 -26 3 -9 1 2 -7 1 6 3 -3 -5 -6 -3 1 -1 -3 -2 0 1 -0 -2 -4 -4 -3 -3 -2 -2
6 11 6 5 8 -1 3 1 5 -11 -10 5 15 -14 6 -15 -17 -13 0 -0 11 -1 -5 -2 -7 -2 -1 -1 -3 -3 -3 -1 -2 -3 -0 -0 -1 -0 1 -0 -5 3 -2 -1
-3 -4 2 -6 -6 -5 5 -6 7 -2 4 20 -14 29 7 8 4 -2 -0 -1 -12 2 2 2 -2 -5 2 -2 -2 -2 -2 1 -1 0 0 -1 -1 1 1 1 -9 -1 1 2
Height
5903 5905 5907 5907 5911 5913 5915 5915 5917 5917 5918 5917 5913 5914 5915 5916 5916 5915 5913 5908 5910 5911 5910 5909 5908 5908 5910 5908 5904 5902 5901 5901 5901 5900 5899 5899 5898 5898 5895 5893 5892 5893 5893 5893
5901 5903 5907 5909 5911 5914 5913 5913 5912 5915 5915 5915 5916 5916 5918 5917 5917 5917 5915 5913 5908 5910 5912 5909 5909 5909 5910 5908 5907 5904 5903 5902 5900 5900 5900 5898 5898 5897 5896 5895 5894 5893 5892 5891
5901 5906 5906 5906 5909 5911 5911 5911 5912 5913 5915 5914 5915 5916 5917 5917 5914 5914 5915 5913 5915 5911 5912 5912 5909 5910 5911 5911 5909 5907 5904 5903 5901 5901 5900 5899 5898 5898 5897 5896 5895 5893 5891 5890
5899 5899 5902 5905 5906 5907 5909 5910 5915 5914 5913 5913 5912 5915 5915 5914 5913 5912 5911 5912 5912 5911 5912 5911 5909 5909 5910 5911 5910 5907 5905 5904 5903 5903 5900 5898 5898 5897 5896 5894 5892 5891 5889 5888
5897 5897 5900 5904 5902 5906 5908 5908 5913 5914 5910 5910 5909 5911 5912 5910 5912 5910 5908 5907 5907 5907 5909 5906 5909 5909 5908 5908 5909 5908 5903 5902 5902 5900 5898 5897 5896 5895 5893 5892 5890 5887 5885 5883
5891 5893 5896 5899 5903 5904 5904 5909 5910 5911 5908 5905 5905 5908 5909 5908 5910 5908 5908 5903 5900 5905 5906 5906 5904 5906 5906 5906 5902 5901 5898 5897 5899 5898 5896 5894 5892 5890 5890 5888 5885 5885 5883 5881
5888 5890 5894 5894 5898 5901 5905 5906 5908 5910 5909 5909 5908 5908 5908 5907 5904 5903 5905 5902 5899 5902 5905 5899 5893 5899 5906 5907 5903 5898 5897 5895 5893 5892 5894 5892 5890 5887 5885 5884 5882 5880 5880 5878
5885 5888 5892 5894 5897 5901 5901 5902 5904 5906 5907 5908 5906 5905 5906 5905 5903 5905 5908 5905 5902 5903 5900 5899 5898 5897 5901 5904 5903 5897 5894 5893 5892 5890 5889 5885 5886 5884 5881 5877 5874 5874 5873 5871
5882 5886 5888 5890 5894 5900 5901 5900 5902 5903 5903 5905 5904 5902 5902 5903 5899 5903 5906 5900 5899 5898 5896 5898 5897 5896 5896 5899 5899 5894 5892 5889 5889 5887 5885 5879 5877 5879 5875 5872 5865 5870 5868 5866
5880 5882 5885 5888 5890 5894 5895 5898 5897 5899 5900 5901 5900 5899 5896 5899 5897 5895 5903 5898 5896 5893 5894 5892 5893 5895 5897 5896 5892 5891 5890 5887 5886 5884 5883 5880 5878 5874 5873 5872 5872 5869 5866 5865
5874 5879 5884 5884 5887 5891 5892 5893 5895 5896 5897 5898 5899 5899 5897 5897 5895 5896 5893 5891 5890 5888 5887 5887 5886 5888 5891 5889 5889 5889 5884 5884 5884 5883 5880 5878 5878 5875 5872 5869 5867 5865 5863 5860
5871 5873 5878 5881 5885 5886 5885 5887 5890 5892 5894 5894 5895 5896 5895 5896 5894 5894 5890 5884 5883 5881 5882 5883 5885 5887 5887 5888 5883 5881 5883 5882 5880 5878 5876 5874 5872 5871 5868 5865 5863 5861 5859 5856
5869 5869 5873 5877 5882 5885 5884 5885 5885 5888 5889 5889 5889 5891 5891 5891 5892 5892 5888 5884 5884 5882 5884 5883 5882 5881 5879 5877 5880 5880 5878 5875 5874 5873 5872 5870 5868 5867 5865 5862 5859 5856 5852 5849
5864 5865 5868 5873 5878 5878 5879 5881 5882 5883 5883 5885 5885 5885 5888 5889 5889 5888 5888 5884 5882 5882 5879 5877 5877 5876 5878 5879 5879 5877 5874 5872 5871 5870 5867 5865 5863 5861 5858 5855 5852 5850 5847 5844
5859 5860 5862 5868 5870 5869 5870 5873 5877 5878 5880 5878 5883 5883 5884 5885 5885 5885 5886 5883 5884 5884 5881 5879 5877 5878 5879 5879 5877 5874 5871 5869 5867 5865 5862 5859 5857 5855 5852 5849 5846 5843 5840 5837
5853 5854 5856 5861 5863 5865 5865 5868 5872 5875 5876 5876 5878 5880 5880 5881 5882 5882 5881 5884 5883 5883 5882 5880 5878 5878 5878 5875 5871 5869 5867 5865 5863 5861 5858 5855 5852 5849 5846 5842 5838 5834 5831 5828
5846 5848 5850 5853 5858 5859 5861 5866 5869 5871 5873 5872 5873 5875 5876 5876 5876 5879 5882 5882 5882 5881 5880 5878 5877 5874 5869 5868 5867 5865 5863 5861 5858 5856 5853 5849 5846 5843 5839 5836 5832 5827 5824 5820
5844 5844 5846 5849 5852 5851 5861 5861 5862 5863 5863 5863 5866 5869 5871 5872 5875 5876 5874 5873 5873 5873 5872 5871 5868 5866 5864 5863 5862 5860 5857 5855 5852 5848 5845 5842 5838 5834 5830 5826 5822 5818 5814 5810
5839 5840 5841 5843 5846 5850 5856 5858 5858 5858 5858 5859 5861 5863 5867 5867 5869 5870 5869 5868 5868 5868 5868 5867 5864 5862 5860 5859 5857 5855 5851 5848 5845 5841 5837 5834 5829 5825 5821 5817 5813 5809 5805 5801
5833 5835 5836 5838 5838 5841 5847 5851 5851 5851 5851 5854 5857 5858 5861 5862 5863 5865 5864 5866 5866 5864 5863 5862 5859 5857 5855 5852 5850 5847 5844 5840 5837 5833 5829 5825 5821 5816 5812 5808 5804 5800 5796 5792
5828 5830 5831 5832 5832 5834 5837 5845 5847 5846 5849 5851 5853 5852 5855 5857 5860 5857 5851 5860 5861 5856 5854 5853 5852 5850 5848 5845 5842 5839 5836 5833 5829 5825 5821 5817 5812 5807 5802 5799 5795 5791 5787 5783
5821 5824 5825 5826 5827 5829 5832 5835 5838 5839 5841 5844 5846 5847 5847 5849 5855 5851 5852 5852 5851 5849 5849 5848 5845 5842 5841 5839 5837 5833 5829 5825 5821 5816 5812 5808 5803 5798 5794 5790 5786 5782 5778 5774
5812 5816 5818 5822 5822 5824 5827 5829 5829 5832 5836 5839 5840 5841 5837 5844 5848 5846 5844 5844 5844 5844 5843 5839 5837 5835 5834 5831 5828 5824 5819 5816 5812 5808 5803 5798 5793 5789 5785 5781 5777 5772 5768 5763
5803 5808 5811 5815 5818 5819 5822 5825 5826 5826 5829 5832 5832 5834 5831 5834 5836 5835 5838 5836 5839 5839 5836 5832 5829 5828 5826 5824 5820 5814 5810 5807 5803 5798 5794 5789 5784 5780 5776 5771 5767 5762 5757 5752
5798 5800 5803 5808 5812 5814 5818 5820 5822 5822 5822 5825 5829 5827 5828 5830 5831 5831 5833 5832 5833 5831 5830 5827 5827 5824 5821 5818 5812 5806 5802 5799 5795 5790 5785 5780 5776 5772 5767 5762 5756 5752 5745 5739
5790 5795 5797 5799 5806 5810 5813 5812 5815 5815 5816 5818 5821 5811 5820 5825 5825 5827 5830 5831 5829 5826 5824 5822 5820 5817 5814 5809 5802 5798 5794 5791 5786 5781 5776 5772 5767 5763 5757 5752 5745 5739 5733 5727